Weather History for KFET - May, 2013

Change the Weather History Date:

Sunday, May 26, 2013

  Actual Average Record
Temperature  
Mean Temperature 69 °F -  
Max Temperature 77 °F 77 °F 97 °F (1967)
Min Temperature 61 °F 55 °F 39 °F (1961)
Cooling Degree Days 4    
Growing Degree Days 19 (Base 50)    
Moisture  
Dew Point 65 °F    
Average Humidity 91    
Maximum Humidity 100    
Minimum Humidity 77    
Precipitation  
Precipitation 0.00 in - - ()
Sea Level Pressure  
Sea Level Pressure 29.92 in    
Wind  
Wind Speed 11 mph (East)    
Max Wind Speed 17 mph    
Max Gust Speed 22 mph    
Visibility 8 miles    
Events Rain    
Averages and records for this station are not official NWS values.
T = Trace of Precipitation, MM = Missing Value Source: NWS Daily Summary

Daily Weather History Graph

Daily Weather History Graph

Search for Another Location

Airport or City:

Trip Planner

Search our weather history database for the weather conditions in past years. The results will help you decide how hot, cold, wet, or windy it might be!

Date:

Astronomy

May. 26, 2013 Rise Set
Actual Time 5:57 AM CDT 8:48 PM CDT
Civil Twilight 5:25 AM CDT 9:21 PM CDT
Nautical Twilight 4:44 AM CDT 10:03 PM CDT
Astronomical Twilight 3:56 AM CDT 10:50 PM CDT
Moon 10:37 PM CDT (5/26) 7:28 AM CDT (5/26)
Length of Visible Light 15h 56m
Length of Day
14h 50m
Waning Gibbous, 96% of the Moon is Illuminated
May 26
Waning Gibbous
May 31
Last Quarter
Jun 8
New
Jun 16
First Quarter
Jun 23
Full

Hourly Weather History & Observations

Time (CDT) Temp. Dew Point Humidity Pressure Visibility Wind Dir Wind Speed Gust Speed Precip Events Conditions
12:15 AM 63.5 °F 61.9 °F 94% 29.99 in 10.0 mi ESE 12.7 mph - N/A   Clear
12:35 AM 63.5 °F 61.9 °F 94% 29.98 in 10.0 mi ESE 12.7 mph - N/A   Clear
12:55 AM 63.5 °F 61.9 °F 94% 29.97 in 10.0 mi ESE 13.8 mph - N/A   Clear
1:15 AM 63.5 °F 62.1 °F 95% 29.96 in 10.0 mi ESE 12.7 mph - N/A   Clear
1:35 AM 63.7 °F 62.2 °F 95% 29.96 in 10.0 mi ESE 16.1 mph 20.7 mph N/A   Clear
1:55 AM 64.0 °F 62.6 °F 95% 29.94 in 10.0 mi ESE 16.1 mph 21.9 mph N/A   Clear
2:15 AM 64.4 °F 62.8 °F 94% 29.95 in 10.0 mi ESE 12.7 mph - N/A   Clear
2:35 AM 65.3 °F 63.5 °F 94% 29.94 in 10.0 mi ESE 12.7 mph 19.6 mph N/A   Clear
2:55 AM 65.5 °F 63.5 °F 93% 29.94 in 10.0 mi ESE 11.5 mph - N/A   Scattered Clouds
3:15 AM 65.8 °F 63.9 °F 93% 29.92 in 10.0 mi SE 11.5 mph - N/A   Scattered Clouds
3:35 AM 66.2 °F 64.0 °F 93% 29.92 in 10.0 mi SE 11.5 mph - N/A   Clear
3:55 AM 66.2 °F 64.0 °F 93% 29.92 in 10.0 mi ESE 10.4 mph - N/A   Clear
4:15 AM 66.4 °F 64.4 °F 93% 29.92 in 10.0 mi SE 10.4 mph - N/A   Clear
4:35 AM 66.6 °F 64.4 °F 93% 29.91 in 10.0 mi ESE 9.2 mph 16.1 mph N/A   Clear
4:55 AM 65.7 °F 64.0 °F 94% 29.92 in 10.0 mi East 8.1 mph - N/A   Clear
5:15 AM 65.3 °F 63.9 °F 95% 29.94 in 10.0 mi ESE 5.8 mph - N/A   Clear
5:35 AM 65.5 °F 64.0 °F 95% 29.94 in 10.0 mi East 9.2 mph - N/A   Mostly Cloudy
5:55 AM 65.3 °F 64.0 °F 96% 29.95 in 10.0 mi East 9.2 mph - N/A   Overcast
6:15 AM 65.5 °F 64.4 °F 96% 29.95 in 10.0 mi East 9.2 mph - N/A   Overcast
6:35 AM 65.7 °F 64.4 °F 96% 29.96 in 10.0 mi ESE 10.4 mph - N/A   Overcast
6:55 AM 65.3 °F 64.2 °F 96% 29.96 in 10.0 mi East 10.4 mph - N/A   Overcast
7:15 AM 65.5 °F 64.4 °F 96% 29.96 in 10.0 mi East 10.4 mph - N/A   Overcast
7:35 AM 66.2 °F 64.8 °F 95% 29.95 in 10.0 mi ESE 10.4 mph - N/A   Overcast
7:55 AM 66.6 °F 64.9 °F 95% 29.96 in 10.0 mi East 6.9 mph - N/A   Overcast
8:15 AM 66.9 °F 65.3 °F 95% 29.96 in 10.0 mi ENE 6.9 mph - N/A   Overcast
8:35 AM 66.2 °F 64.6 °F 94% 29.97 in 10.0 mi ENE 10.4 mph - N/A   Overcast
8:55 AM 64.4 °F 63.1 °F 96% 29.98 in 7.0 mi NE 10.4 mph - N/A   Overcast
9:15 AM 63.3 °F 62.6 °F 97% 29.98 in 4.0 mi NE 10.4 mph 18.4 mph N/A   Overcast
9:35 AM 61.5 °F 61.2 °F 99% 29.99 in 2.0 mi NE 10.4 mph 18.4 mph N/A   Overcast
9:55 AM 61.2 °F 61.2 °F 100% 29.97 in 1.2 mi ENE 12.7 mph 17.3 mph N/A Rain Light Rain
10:15 AM 61.7 °F 61.7 °F 100% 29.96 in 1.2 mi East 13.8 mph - N/A Rain Light Rain
10:35 AM 62.2 °F 62.2 °F 100% 29.96 in 1.2 mi East 9.2 mph - N/A Rain Light Rain
10:55 AM 62.8 °F 62.8 °F 100% 29.98 in 1.5 mi East 5.8 mph - N/A   Overcast
11:15 AM 63.5 °F 63.5 °F 100% 29.98 in 2.0 mi East 5.8 mph - N/A   Overcast
11:35 AM 64.4 °F 64.4 °F 100% 29.96 in 2.5 mi East 10.4 mph - N/A   Overcast
11:55 AM 64.8 °F 64.6 °F 99% 29.95 in 3.0 mi East 10.4 mph 17.3 mph N/A   Overcast
12:15 PM 66.2 °F 65.5 °F 98% 29.95 in 4.0 mi East 9.2 mph - N/A   Overcast
12:35 PM 67.5 °F 66.4 °F 96% 29.95 in 4.0 mi East 8.1 mph - N/A   Overcast
12:55 PM 71.1 °F 68.9 °F 93% 29.92 in 5.0 mi ESE 11.5 mph - N/A   Mostly Cloudy
1:15 PM 72.9 °F 69.1 °F 88% 29.93 in 7.0 mi East 11.5 mph - N/A   Mostly Cloudy
1:35 PM 72.1 °F 68.0 °F 87% 29.93 in 7.0 mi NE 6.9 mph - N/A   Overcast
1:55 PM 72.1 °F 68.4 °F 88% 29.92 in 7.0 mi ENE 10.4 mph - N/A   Overcast
2:15 PM 70.9 °F 67.5 °F 89% 29.93 in 5.0 mi ENE 10.4 mph 16.1 mph N/A   Overcast
2:35 PM 72.7 °F 68.2 °F 86% 29.91 in 7.0 mi East 13.8 mph - N/A   Overcast
2:55 PM 74.5 °F 68.7 °F 82% 29.92 in 7.0 mi East 11.5 mph 17.3 mph N/A   Overcast
3:15 PM 74.1 °F 68.5 °F 83% 29.92 in 7.0 mi ENE 10.4 mph - N/A   Overcast
3:35 PM 74.7 °F 68.4 °F 81% 29.92 in 7.0 mi ENE 9.2 mph - N/A   Overcast
3:55 PM 76.6 °F 68.9 °F 77% 29.90 in 10.0 mi East 11.5 mph 16.1 mph N/A   Mostly Cloudy
4:15 PM 76.3 °F 69.1 °F 78% 29.89 in 10.0 mi East 10.4 mph 18.4 mph N/A   Scattered Clouds
4:35 PM 76.6 °F 69.4 °F 78% 29.88 in 10.0 mi East 9.2 mph - N/A   Mostly Cloudy
4:55 PM 77.4 °F 69.8 °F 77% 29.87 in 10.0 mi ENE 10.4 mph - N/A   Mostly Cloudy
5:15 PM 77.4 °F 69.8 °F 77% 29.86 in 10.0 mi East 11.5 mph - N/A   Overcast
5:35 PM 77.4 °F 70.2 °F 78% 29.86 in 10.0 mi ENE 9.2 mph - N/A   Overcast
5:55 PM 77.2 °F 69.8 °F 78% 29.85 in 10.0 mi East 13.8 mph 17.3 mph N/A   Overcast
6:15 PM 75.6 °F 68.7 °F 79% 29.85 in 10.0 mi ENE 12.7 mph 19.6 mph N/A   Overcast
6:35 PM 74.5 °F 68.2 °F 81% 29.84 in 10.0 mi ENE 12.7 mph 19.6 mph N/A   Mostly Cloudy
6:55 PM 72.5 °F 66.6 °F 82% 29.85 in 10.0 mi ENE 13.8 mph 21.9 mph N/A   Scattered Clouds
7:15 PM 70.5 °F 65.5 °F 84% 29.86 in 7.0 mi East 17.3 mph 21.9 mph N/A   Scattered Clouds
7:35 PM 69.8 °F 64.6 °F 83% 29.85 in 10.0 mi East 16.1 mph 21.9 mph N/A   Scattered Clouds
7:55 PM 68.9 °F 64.4 °F 86% 29.85 in 10.0 mi East 12.7 mph - N/A   Scattered Clouds
8:15 PM 69.3 °F 65.1 °F 87% 29.86 in 10.0 mi East 8.1 mph - N/A   Scattered Clouds
8:35 PM 69.8 °F 65.7 °F 87% 29.86 in 10.0 mi ENE 9.2 mph - N/A   Mostly Cloudy
8:55 PM 69.3 °F 65.8 °F 89% 29.87 in 10.0 mi ENE 11.5 mph - N/A   Mostly Cloudy
9:15 PM 68.2 °F 64.9 °F 89% 29.86 in 10.0 mi East 9.2 mph - N/A   Scattered Clouds
9:35 PM 67.6 °F 64.6 °F 90% 29.87 in 7.0 mi East 11.5 mph - N/A   Scattered Clouds
9:55 PM 67.5 °F 64.9 °F 92% 29.85 in 7.0 mi East 12.7 mph - N/A   Scattered Clouds
10:15 PM 68.0 °F 66.0 °F 93% 29.83 in 7.0 mi ESE 13.8 mph 18.4 mph N/A   Mostly Cloudy
10:35 PM 69.1 °F 66.2 °F 91% 29.83 in 10.0 mi ESE 10.4 mph 17.3 mph N/A   Overcast
10:55 PM 69.3 °F 66.4 °F 91% 29.84 in 10.0 mi ESE 12.7 mph - N/A   Mostly Cloudy
11:15 PM 69.6 °F 66.6 °F 90% 29.85 in 10.0 mi ESE 12.7 mph - N/A   Scattered Clouds
11:35 PM 69.6 °F 66.7 °F 91% 29.83 in 10.0 mi ESE 12.7 mph - N/A   Mostly Cloudy
11:55 PM 70.2 °F 66.6 °F 88% 29.84 in 10.0 mi ESE 10.4 mph - N/A   Mostly Cloudy